TITAN 3C TRANSTAGE DEB, 43447

Orbit data source: Space-Track

TITAN 3C TRANSTAGE DEB, 43447 is space debris in GEO originally from a launch on Sun, 09 Feb 1969 UTC launched from the Air Force Eastern Test Range (AFETR). Debris objects in space refer to the collection of defunct objects orbiting the Earth. Examples of debris include non-operational satellites, rocket bodies, and fragments generated from explosions, collisions, or faulty payload assembly.

Not visible in the next 10 days
Identifier
43447, 1969-013G
Orbit
GEO
Last TLE update
1 day ago
Origin
Manufacturer
Martin Marietta
Mission
Spacecraft
Bus & Motor
Unknown
Mass
Unknown
Launch date (UTC)
1969-02-09 (56 years ago)
Launch vehicle
Unknown
Launch site
Air Force Eastern Test Range (AFETR)
Object type
Payload
Rocket body
Debris
Shape & HBR
Unknown
Radar Cross Section
RCS unknown

Expand to show TLE details & history

TLE from 1 day ago
0 TITAN 3C TRANSTAGE DEB
1 43447U 69013G   25128.26799342 -.00000110  00000-0  00000-0 0  9994
2 43447   0.2050  80.0293 0139128  19.8738 261.6685  0.97140100 25332
Epoch: 2025-05-08T06:25Z
Definitive object data (Epoch: 2025-05-08T06:25:54.631Z)
Latitude
-0.17999°
Longitude
37.18139°
Altitude
36,779.721 km
Speed
3.036 km/s
True Right ascension
23h 59m 59s
True Declination
0° 10' 47"
Sunlit
Object was in daylight at TLE epoch
Visualization TLE readout
Latitude
-0.18257°
Longitude
33.83981°
Altitude
36,813.923 km
Speed
3.033 km/s
Apparent Right ascension
00h 04m 54s
Apparent Declination
-5° 10' 00"
Sunlit
Object is in daylight
Visualization observer readout
Local Sidereal Time
15:03:22
Azimuth
61.119° ENE
Elevation
-36.98°
Doppler factor
1
Orbital elements
Apogee altitude
37,288.257 km
Perigee altitude
36,089.886 km
Semi-major axis
43,067.209 km
Eccentricity
0.0139128
Inclination
0.205°
RAAN
80.0293°
Arg. of periapsis
19.8738°
True anomaly
260.0952°
Mean anomaly
261.6685°
Eccentric anomaly
260.88143°
Mean motion
0.24284 °/min
BSTAR
Unknown
Orbital period
1482.45 mins
Loading historical data...
43447 neighbors
Loading maneuver chart data...
Loading SW <> Apogee altitude chart data...

TITAN 3C TRANSTAGE DEB Visibility forecast

Observer location: undefined°, undefined°

TITAN 3C TRANSTAGE DEB is not visible in the next 10 days
Span
Click to sort rows by Start time (UTC) header in descending order
Start Az.
Max El. time (UTC)
Max El. Az.
Max El.
End time (UTC)
End Az.
|